Time,TemperatureF,DewpointF,PressureIn,WindDirection,WindDirectionDegrees,WindSpeedMPH,WindSpeedGustMPH,Humidity,HourlyPrecipIn,Conditions,Clouds,dailyrainin,SoftwareType,DateUTC
2013-04-26 00:02:00,64.0,9.0,30.01,WSW,258,9.0,13.0,11,-99.99,,,-99.99,,2013-04-26 06:02:00,
2013-04-26 00:11:00,65.0,9.0,30.02,West,270,10.0,14.0,11,-99.99,,,-99.99,,2013-04-26 06:11:00,
2013-04-26 00:21:00,65.0,9.0,30.03,WSW,257,9.0,13.0,11,-99.99,,,-99.99,,2013-04-26 06:21:00,
2013-04-26 00:32:00,64.0,8.0,30.03,West,271,9.0,12.0,11,-99.99,,,-99.99,,2013-04-26 06:32:00,
2013-04-26 00:42:00,63.0,10.0,30.04,West,275,9.0,12.0,12,-99.99,,,-99.99,,2013-04-26 06:42:00,
2013-04-26 00:52:00,63.0,10.0,30.04,WNW,285,9.0,13.0,12,-99.99,,,-99.99,,2013-04-26 06:52:00,
2013-04-26 01:01:00,64.0,11.0,30.04,WNW,293,12.0,15.0,12,-99.99,,,-99.99,,2013-04-26 07:01:00,
2013-04-26 01:11:00,65.0,13.0,30.05,WNW,293,12.0,15.0,13,-99.99,,,-99.99,,2013-04-26 07:11:00,
2013-04-26 01:22:00,64.0,14.0,30.05,WNW,292,10.0,14.0,14,-99.99,,,-99.99,,2013-04-26 07:22:00,
2013-04-26 01:31:00,63.0,15.0,30.05,WNW,293,10.0,13.0,15,-99.99,,,-99.99,,2013-04-26 07:31:00,
2013-04-26 01:42:00,63.0,14.0,30.05,WNW,289,9.0,12.0,15,-99.99,,,-99.99,,2013-04-26 07:42:00,
2013-04-26 01:52:00,62.0,15.0,30.05,WNW,291,9.0,12.0,16,-99.99,,,-99.99,,2013-04-26 07:52:00,
2013-04-26 02:02:00,60.0,16.0,30.05,WNW,292,8.0,9.0,18,-99.99,,,-99.99,,2013-04-26 08:02:00,
2013-04-26 02:11:00,59.0,17.0,30.05,WNW,291,9.0,12.0,19,-99.99,,,-99.99,,2013-04-26 08:11:00,
2013-04-26 02:21:00,59.0,17.0,30.05,WNW,289,9.0,12.0,19,-99.99,,,-99.99,,2013-04-26 08:21:00,
2013-04-26 02:32:00,59.0,18.0,30.06,WNW,290,8.0,10.0,20,-99.99,,,-99.99,,2013-04-26 08:32:00,
2013-04-26 02:42:00,59.0,19.0,30.06,WNW,299,9.0,10.0,21,-99.99,,,-99.99,,2013-04-26 08:42:00,
2013-04-26 02:52:00,59.0,19.0,30.06,NW,304,9.0,13.0,21,-99.99,,,-99.99,,2013-04-26 08:52:00,
2013-04-26 03:01:00,59.0,19.0,30.06,NW,306,10.0,13.0,21,-99.99,,,-99.99,,2013-04-26 09:01:00,
2013-04-26 03:11:00,59.0,19.0,30.07,NW,308,9.0,12.0,21,-99.99,,,-99.99,,2013-04-26 09:11:00,
2013-04-26 03:21:00,59.0,19.0,30.07,NW,311,10.0,12.0,21,-99.99,,,-99.99,,2013-04-26 09:21:00,
2013-04-26 03:33:00,59.0,19.0,30.08,NW,314,12.0,14.0,21,-99.99,,,-99.99,,2013-04-26 09:33:00,
2013-04-26 03:42:00,59.0,19.0,30.08,NW,315,12.0,14.0,21,-99.99,,,-99.99,,2013-04-26 09:42:00,
2013-04-26 03:53:00,59.0,19.0,30.08,NW,315,10.0,14.0,21,-99.99,,,-99.99,,2013-04-26 09:53:00,
2013-04-26 04:03:00,58.0,19.0,30.09,NW,321,10.0,14.0,22,-99.99,,,-99.99,,2013-04-26 10:03:00,
2013-04-26 04:12:00,58.0,19.0,30.09,NW,321,10.0,14.0,22,-99.99,,,-99.99,,2013-04-26 10:12:00,
2013-04-26 04:23:00,57.0,19.0,30.09,NW,317,12.0,14.0,22,-99.99,,,-99.99,,2013-04-26 10:23:00,
2013-04-26 04:33:00,57.0,19.0,30.09,NW,319,10.0,13.0,22,-99.99,,,-99.99,,2013-04-26 10:33:00,
2013-04-26 04:42:00,56.0,19.0,30.10,NW,320,10.0,13.0,23,-99.99,,,-99.99,,2013-04-26 10:42:00,
2013-04-26 04:52:00,55.0,18.0,30.10,NW,317,10.0,13.0,23,-99.99,,,-99.99,,2013-04-26 10:52:00,
2013-04-26 05:02:00,56.0,19.0,30.10,NW,318,10.0,13.0,23,-99.99,,,-99.99,,2013-04-26 11:02:00,
2013-04-26 05:11:00,55.0,19.0,30.10,WNW,303,9.0,13.0,24,-99.99,,,-99.99,,2013-04-26 11:11:00,
2013-04-26 05:22:00,54.0,18.0,30.11,NW,313,9.0,12.0,24,-99.99,,,-99.99,,2013-04-26 11:22:00,
2013-04-26 05:32:00,54.0,18.0,30.11,NW,312,9.0,10.0,24,-99.99,,,-99.99,,2013-04-26 11:32:00,
2013-04-26 05:42:00,53.0,18.0,30.11,WNW,282,7.0,7.0,25,-99.99,,,-99.99,,2013-04-26 11:42:00,
2013-04-26 05:52:00,53.0,18.0,30.11,NW,313,7.0,8.0,25,-99.99,,,-99.99,,2013-04-26 11:52:00,
2013-04-26 06:01:00,53.0,18.0,30.11,NW,317,7.0,10.0,25,-99.99,,,-99.99,,2013-04-26 12:01:00,
2013-04-26 06:11:00,51.0,18.0,30.12,WNW,285,6.0,7.0,26,-99.99,,,-99.99,,2013-04-26 12:11:00,
2013-04-26 06:21:00,51.0,18.0,30.12,WNW,285,5.0,6.0,27,-99.99,,,-99.99,,2013-04-26 12:21:00,
2013-04-26 06:32:00,50.0,18.0,30.13,SW,228,6.0,6.0,27,-99.99,,,-99.99,,2013-04-26 12:32:00,
2013-04-26 06:42:00,52.0,18.0,30.13,West,263,5.0,7.0,26,-99.99,,,-99.99,,2013-04-26 12:42:00,
2013-04-26 06:52:00,53.0,18.0,30.13,WNW,301,6.0,9.0,25,-99.99,,,-99.99,,2013-04-26 12:52:00,
2013-04-26 07:01:00,52.0,18.0,30.13,SW,229,5.0,5.0,26,-99.99,,,-99.99,,2013-04-26 13:01:00,
2013-04-26 07:11:00,51.0,18.0,30.14,SW,223,5.0,5.0,27,-99.99,,,-99.99,,2013-04-26 13:11:00,
2013-04-26 07:21:00,52.0,18.0,30.14,WSW,238,6.0,6.0,26,-99.99,,,-99.99,,2013-04-26 13:21:00,
2013-04-26 07:32:00,53.0,18.0,30.14,SW,222,6.0,8.0,25,-99.99,,,-99.99,,2013-04-26 13:32:00,
2013-04-26 07:42:00,53.0,17.0,30.15,WSW,237,6.0,7.0,24,-99.99,,,-99.99,,2013-04-26 13:42:00,
2013-04-26 07:52:00,55.0,18.0,30.15,SW,232,8.0,10.0,23,-99.99,,,-99.99,,2013-04-26 13:52:00,
2013-04-26 08:01:00,57.0,17.0,30.15,WSW,249,7.0,8.0,20,-99.99,,,-99.99,,2013-04-26 14:01:00,
2013-04-26 08:11:00,59.0,17.0,30.16,WSW,246,8.0,13.0,19,-99.99,,,-99.99,,2013-04-26 14:11:00,
2013-04-26 08:21:00,61.0,16.0,30.16,West,261,10.0,14.0,17,-99.99,,,-99.99,,2013-04-26 14:21:00,
2013-04-26 08:32:00,62.0,16.0,30.16,West,275,10.0,14.0,16,-99.99,,,-99.99,,2013-04-26 14:32:00,
2013-04-26 08:42:00,64.0,15.0,30.16,WNW,286,12.0,16.0,15,-99.99,,,-99.99,,2013-04-26 14:42:00,
2013-04-26 08:51:00,64.0,16.0,30.17,WNW,295,13.0,16.0,15,-99.99,,,-99.99,,2013-04-26 14:51:00,
2013-04-26 09:01:00,65.0,15.0,30.17,WNW,300,14.0,17.0,14,-99.99,,,-99.99,,2013-04-26 15:01:00,
2013-04-26 09:12:00,66.0,15.0,30.17,WNW,303,10.0,15.0,14,-99.99,,,-99.99,,2013-04-26 15:12:00,
2013-04-26 09:21:00,67.0,14.0,30.17,NW,313,13.0,16.0,13,-99.99,,,-99.99,,2013-04-26 15:21:00,
2013-04-26 09:33:00,67.0,15.0,30.17,NW,319,12.0,14.0,13,-99.99,,,-99.99,,2013-04-26 15:33:00,
2013-04-26 09:43:00,68.0,15.0,30.17,NW,310,13.0,16.0,13,-99.99,,,-99.99,,2013-04-26 15:43:00,
2013-04-26 09:53:00,69.0,14.0,30.18,NW,305,13.0,16.0,12,-99.99,,,-99.99,,2013-04-26 15:53:00,
2013-04-26 10:03:00,69.0,13.0,30.18,NW,320,14.0,18.0,11,-99.99,,,-99.99,,2013-04-26 16:03:00,
2013-04-26 10:12:00,70.0,11.0,30.18,NW,316,12.0,17.0,10,-99.99,,,-99.99,,2013-04-26 16:12:00,
2013-04-26 10:23:00,70.0,13.0,30.18,NW,314,8.0,12.0,11,-99.99,,,-99.99,,2013-04-26 16:23:00,
2013-04-26 10:33:00,70.0,13.0,30.18,NW,320,12.0,15.0,11,-99.99,,,-99.99,,2013-04-26 16:33:00,
2013-04-26 10:42:00,71.0,14.0,30.18,NW,313,7.0,13.0,11,-99.99,,,-99.99,,2013-04-26 16:42:00,
2013-04-26 10:52:00,71.0,14.0,30.18,NW,320,9.0,14.0,11,-99.99,,,-99.99,,2013-04-26 16:52:00,
2013-04-26 11:02:00,72.0,12.0,30.18,NW,316,8.0,14.0,10,-99.99,,,-99.99,,2013-04-26 17:02:00,
2013-04-26 11:12:00,72.0,12.0,30.18,NW,323,7.0,9.0,10,-99.99,,,-99.99,,2013-04-26 17:12:00,
2013-04-26 11:22:00,72.0,12.0,30.18,North,4,7.0,10.0,10,-99.99,,,-99.99,,2013-04-26 17:22:00,
2013-04-26 11:31:00,73.0,11.0,30.18,NW,315,8.0,12.0,9,-99.99,,,-99.99,,2013-04-26 17:31:00,
2013-04-26 11:42:00,73.0,13.0,30.18,NW,319,6.0,8.0,10,-99.99,,,-99.99,,2013-04-26 17:42:00,
2013-04-26 11:51:00,74.0,12.0,30.18,WNW,295,8.0,10.0,9,-99.99,,,-99.99,,2013-04-26 17:51:00,
2013-04-26 12:02:00,74.0,12.0,30.18,WNW,297,9.0,13.0,9,-99.99,,,-99.99,,2013-04-26 18:02:00,
2013-04-26 12:12:00,74.0,11.0,30.17,WNW,288,6.0,8.0,9,-99.99,,,-99.99,,2013-04-26 18:12:00,
2013-04-26 12:22:00,74.0,12.0,30.17,NW,305,8.0,12.0,9,-99.99,,,-99.99,,2013-04-26 18:22:00,
2013-04-26 12:33:00,75.0,13.0,30.17,West,264,9.0,13.0,9,-99.99,,,-99.99,,2013-04-26 18:33:00,
2013-04-26 12:42:00,75.0,12.0,30.16,NW,308,6.0,10.0,9,-99.99,,,-99.99,,2013-04-26 18:42:00,
2013-04-26 12:52:00,74.0,12.0,30.16,WSW,252,3.0,7.0,9,-99.99,,,-99.99,,2013-04-26 18:52:00,
2013-04-26 13:01:00,76.0,10.0,30.16,NNW,344,10.0,15.0,8,-99.99,,,-99.99,,2013-04-26 19:01:00,
2013-04-26 13:12:00,77.0,11.0,30.16,NNW,335,10.0,14.0,8,-99.99,,,-99.99,,2013-04-26 19:12:00,
2013-04-26 13:22:00,76.0,10.0,30.15,NNW,327,6.0,8.0,8,-99.99,,,-99.99,,2013-04-26 19:22:00,
2013-04-26 13:32:00,76.0,11.0,30.15,South,189,6.0,7.0,8,-99.99,,,-99.99,,2013-04-26 19:32:00,
2013-04-26 13:41:00,78.0,12.0,30.15,North,5,10.0,17.0,8,-99.99,,,-99.99,,2013-04-26 19:41:00,
2013-04-26 13:52:00,77.0,11.0,30.15,NNW,335,12.0,15.0,8,-99.99,,,-99.99,,2013-04-26 19:52:00,
2013-04-26 14:02:00,76.0,13.0,30.14,North,349,6.0,9.0,9,-99.99,,,-99.99,,2013-04-26 20:02:00,
2013-04-26 14:11:00,79.0,10.0,30.14,West,274,12.0,22.0,7,-99.99,,,-99.99,,2013-04-26 20:11:00,
2013-04-26 14:21:00,79.0,10.0,30.14,West,271,8.0,14.0,7,-99.99,,,-99.99,,2013-04-26 20:21:00,
2013-04-26 14:32:00,78.0,12.0,30.13,NNW,332,8.0,12.0,8,-99.99,,,-99.99,,2013-04-26 20:32:00,
2013-04-26 14:42:00,79.0,12.0,30.13,North,349,8.0,10.0,8,-99.99,,,-99.99,,2013-04-26 20:42:00,
2013-04-26 14:52:00,80.0,10.0,30.13,NW,306,8.0,16.0,7,-99.99,,,-99.99,,2013-04-26 20:52:00,
2013-04-26 15:01:00,80.0,10.0,30.12,West,271,6.0,14.0,7,-99.99,,,-99.99,,2013-04-26 21:01:00,
2013-04-26 15:11:00,80.0,10.0,30.12,WSW,247,8.0,14.0,7,-99.99,,,-99.99,,2013-04-26 21:11:00,
2013-04-26 15:22:00,80.0,10.0,30.12,South,175,3.0,5.0,7,-99.99,,,-99.99,,2013-04-26 21:22:00,
2013-04-26 15:33:00,79.0,12.0,30.12,SSE,159,6.0,10.0,8,-99.99,,,-99.99,,2013-04-26 21:33:00,
2013-04-26 15:42:00,81.0,11.0,30.12,WSW,256,6.0,13.0,7,-99.99,,,-99.99,,2013-04-26 21:42:00,
2013-04-26 15:52:00,81.0,11.0,30.11,WSW,241,9.0,14.0,7,-99.99,,,-99.99,,2013-04-26 21:52:00,
2013-04-26 16:02:00,81.0,11.0,30.10,SW,221,13.0,17.0,7,-99.99,,,-99.99,,2013-04-26 22:02:00,
2013-04-26 16:12:00,81.0,12.0,30.10,WSW,256,14.0,21.0,7,-99.99,,,-99.99,,2013-04-26 22:12:00,
2013-04-26 16:23:00,81.0,8.0,30.10,SW,233,10.0,17.0,6,-99.99,,,-99.99,,2013-04-26 22:23:00,
2013-04-26 16:33:00,81.0,8.0,30.10,WSW,246,5.0,9.0,6,-99.99,,,-99.99,,2013-04-26 22:33:00,
2013-04-26 16:42:00,79.0,10.0,30.09,SSW,200,7.0,15.0,7,-99.99,,,-99.99,,2013-04-26 22:42:00,
2013-04-26 16:52:00,82.0,8.0,30.09,NW,307,14.0,20.0,6,-99.99,,,-99.99,,2013-04-26 22:52:00,
2013-04-26 17:02:00,81.0,7.0,30.09,NNW,333,8.0,10.0,6,-99.99,,,-99.99,,2013-04-26 23:02:00,
2013-04-26 17:11:00,82.0,8.0,30.09,West,265,13.0,17.0,6,-99.99,,,-99.99,,2013-04-26 23:11:00,
2013-04-26 17:21:00,81.0,8.0,30.09,West,270,9.0,16.0,6,-99.99,,,-99.99,,2013-04-26 23:21:00,
2013-04-26 17:32:00,81.0,8.0,30.09,WSW,239,10.0,18.0,6,-99.99,,,-99.99,,2013-04-26 23:32:00,
2013-04-26 17:42:00,81.0,7.0,30.09,West,261,9.0,13.0,6,-99.99,,,-99.99,,2013-04-26 23:42:00,
2013-04-26 17:52:00,81.0,4.0,30.09,WNW,296,13.0,17.0,5,-99.99,,,-99.99,,2013-04-26 23:52:00,
2013-04-26 18:01:00,80.0,7.0,30.09,NW,316,10.0,15.0,6,-99.99,,,-99.99,,2013-04-27 00:01:00,
2013-04-26 18:11:00,80.0,7.0,30.09,WSW,251,10.0,15.0,6,-99.99,,,-99.99,,2013-04-27 00:11:00,
2013-04-26 18:21:00,80.0,7.0,30.09,WNW,295,8.0,13.0,6,-99.99,,,-99.99,,2013-04-27 00:21:00,
2013-04-26 18:32:00,80.0,7.0,30.09,WNW,285,7.0,13.0,6,-99.99,,,-99.99,,2013-04-27 00:32:00,
2013-04-26 18:42:00,80.0,7.0,30.09,WSW,249,7.0,9.0,6,-99.99,,,-99.99,,2013-04-27 00:42:00,
2013-04-26 18:51:00,80.0,7.0,30.09,WSW,249,8.0,13.0,6,-99.99,,,-99.99,,2013-04-27 00:51:00,
2013-04-26 19:01:00,80.0,7.0,30.09,WSW,250,9.0,15.0,6,-99.99,,,-99.99,,2013-04-27 01:01:00,
2013-04-26 19:12:00,79.0,6.0,30.09,West,275,10.0,14.0,6,-99.99,,,-99.99,,2013-04-27 01:12:00,
2013-04-26 19:21:00,79.0,6.0,30.09,West,267,12.0,14.0,6,-99.99,,,-99.99,,2013-04-27 01:21:00,
2013-04-26 19:32:00,78.0,6.0,30.09,WNW,288,9.0,16.0,6,-99.99,,,-99.99,,2013-04-27 01:32:00,
2013-04-26 19:42:00,78.0,9.0,30.09,WSW,246,6.0,8.0,7,-99.99,,,-99.99,,2013-04-27 01:42:00,
2013-04-26 19:52:00,77.0,8.0,30.09,WSW,253,5.0,7.0,7,-99.99,,,-99.99,,2013-04-27 01:52:00,
2013-04-26 20:01:00,76.0,7.0,30.09,WSW,244,6.0,7.0,7,-99.99,,,-99.99,,2013-04-27 02:01:00,
2013-04-26 20:11:00,75.0,7.0,30.10,WSW,243,6.0,7.0,7,-99.99,,,-99.99,,2013-04-27 02:11:00,
2013-04-26 20:22:00,73.0,9.0,30.10,SW,236,7.0,7.0,8,-99.99,,,-99.99,,2013-04-27 02:22:00,
2013-04-26 20:32:00,74.0,9.0,30.10,SW,233,7.0,7.0,8,-99.99,,,-99.99,,2013-04-27 02:32:00,
2013-04-26 20:42:00,72.0,7.0,30.10,West,264,5.0,6.0,8,-99.99,,,-99.99,,2013-04-27 02:42:00,
2013-04-26 20:52:00,71.0,6.0,30.11,WNW,283,3.0,5.0,8,-99.99,,,-99.99,,2013-04-27 02:52:00,
2013-04-26 21:02:00,71.0,7.0,30.11,NW,309,5.0,6.0,8,-99.99,,,-99.99,,2013-04-27 03:02:00,
2013-04-26 21:11:00,70.0,6.0,30.12,NW,308,3.0,5.0,8,-99.99,,,-99.99,,2013-04-27 03:11:00,
2013-04-26 21:22:00,69.0,5.0,30.12,WNW,282,7.0,9.0,8,-99.99,,,-99.99,,2013-04-27 03:22:00,
2013-04-26 21:33:00,68.0,4.0,30.12,West,279,9.0,10.0,8,-99.99,,,-99.99,,2013-04-27 03:33:00,
2013-04-26 21:43:00,66.0,6.0,30.13,West,280,8.0,9.0,9,-99.99,,,-99.99,,2013-04-27 03:43:00,
2013-04-26 21:53:00,66.0,5.0,30.13,WNW,292,7.0,8.0,9,-99.99,,,-99.99,,2013-04-27 03:53:00,
2013-04-26 22:02:00,66.0,5.0,30.13,NW,305,9.0,9.0,9,-99.99,,,-99.99,,2013-04-27 04:02:00,
2013-04-26 22:12:00,66.0,3.0,30.14,North,352,8.0,10.0,8,-99.99,,,-99.99,,2013-04-27 04:12:00,
2013-04-26 22:23:00,67.0,4.0,30.14,North,350,8.0,10.0,8,-99.99,,,-99.99,,2013-04-27 04:23:00,
2013-04-26 22:33:00,68.0,4.0,30.14,NNW,338,7.0,9.0,8,-99.99,,,-99.99,,2013-04-27 04:33:00,
2013-04-26 22:43:00,69.0,2.0,30.14,NNW,332,7.0,9.0,7,-99.99,,,-99.99,,2013-04-27 04:43:00,
2013-04-26 22:52:00,68.0,2.0,30.14,NNW,328,7.0,8.0,7,-99.99,,,-99.99,,2013-04-27 04:52:00,
2013-04-26 23:02:00,68.0,4.0,30.14,NNW,333,7.0,8.0,8,-99.99,,,-99.99,,2013-04-27 05:02:00,
2013-04-26 23:12:00,67.0,4.0,30.14,NNW,332,6.0,7.0,8,-99.99,,,-99.99,,2013-04-27 05:12:00,
2013-04-26 23:22:00,67.0,4.0,30.14,NNW,331,7.0,8.0,8,-99.99,,,-99.99,,2013-04-27 05:22:00,
2013-04-26 23:32:00,67.0,4.0,30.14,NNW,327,8.0,9.0,8,-99.99,,,-99.99,,2013-04-27 05:32:00,
2013-04-26 23:42:00,67.0,4.0,30.14,NNW,335,7.0,8.0,8,-99.99,,,-99.99,,2013-04-27 05:42:00,
2013-04-26 23:52:00,66.0,3.0,30.14,North,356,9.0,10.0,8,-99.99,,,-99.99,,2013-04-27 05:52:00,